User: anonymous   Login
Location: Mentone
(34.5413°N, 85.5351°W)
Time: 09:01:44
(UTC-06:00)
Language:

Cosmos 1703 - Orbit

View from above orbital plane
View from above orbital plane
View from above satellite
View from above satellite

Ground track
Ground track

The orbit data is extracted from the following two-line orbital elements,

1 16262U 85108A   17016.62695751 -.00000056  00000-0 -53220-5 0  9995
2 16262  82.4765  38.7820 0013163  78.2984 281.9721 15.10133704696029
Epoch (UTC): 16 January 2017 15:02:49
Eccentricity: 0.0013163
inclination: 82.4765°
perigee height: 526 km
apogee height: 545 km
right ascension of ascending node: 38.7820°
argument of perigee: 78.2984°
revolutions per day: 15.10133704
mean anomaly at epoch: 281.9721°
orbit number at epoch: 69602

The dashed part of the orbit path shows where the satellite is in the earth's shadow,  

DLR